Regional Weather Roundup
Issued by NWS Pendleton, OR

Home | Current Version | Previous Version | Text Only | Print | Product List | Glossary On
Versions: 1 2 3 4 5 6 7 8 9 10 11 12 13 14 15 16 17 18 19 20 21 22 23 24 25 26 27 28 29 30 31 32 33 34 35 36 37 38 39 40 41 42 43 44 45 46 47 48 49 50
000
ASUS46 KPDT 251510
RWRPDT
PENDLETON REGIONAL WEATHER ROUNDUP
NATIONAL WEATHER SERVICE PENDLETON OREGON
800 AM PDT SAT APR 25 2015

NOTE: FAIR INDICATES FEW OR NO CLOUDS BELOW 12,000 FEET WITH NO
SIGNIFICANT WEATHER AND/OR OBSTRUCTIONS TO VISIBILITY.

# INDICATES UNOFFICIAL STATION AND DATA

WAZ520-251610-
EAST SLOPES OF WASHINGTON CASCADES

CITY            SKY/WX      TMP DP  RH  WIND    PRES   REMARKS
#BUMPING DAM    N/A         33  N/A N/A S2      N/A
#CLE ELUM HS    N/A         35  34  96  CALM    29.82R
#CLE ELUM LAKE  N/A         35  32  89  CALM    29.88R
#CLIFFDEL 2NW   N/A         32  31  96  N1      N/A
#EASTON DOT     N/A         34  34  100 N1      N/A
#GLENWOOD       N/A         36  35  96  CALM    29.91R
#MANASTASH CYN  N/A         36  29  75  CALM    29.83R
#NELSON         N/A         34  33  96  CALM    29.91S
#NELSON 3SW     N/A         33  32  96  CALM    30.11R
#NILE           N/A         33  31  92  CALM    29.14R
#PEOH POINT     N/A         29  29  100 S3      N/A
#RONALD 2NW     N/A         38   5  25  W1      29.74R
#SNOWDEN        N/A         35  31  85  CALM    N/A
#SOUTH BLEWITT  N/A         31  29  92  CALM    N/A
#TEANAWAY 4NE   N/A         34  32  92  CALM    N/A
#TROUT LAKE 1NE N/A         35  34  96  E1      29.92R
$$

WAZ521-251610-
SIMCOE HIGHLANDS

CITY            SKY/WX      TMP DP  RH  WIND    PRES   REMARKS
#BICKLETON HS   N/A         37  25  61  W7      N/A
#SATUS PASS DOT N/A         33  30  89  CALM    N/A
#CENTERVILLE 4W N/A         41  37  86  NW7     29.64R
#GOLDENDALE     N/A         39  37  92  NW3     N/A
#GOLDENDALE 1NE N/A         40  32  73  SW3     N/A
#GOODNOE HILLS  N/A         42  39  89  W13     N/A    WCI 35
#LYLE 6NE       N/A         38  37  96  S1      29.89R
$$

WAZ026-251610-
KITTITAS VALLEY

CITY            SKY/WX      TMP DP  RH  WIND    PRES   REMARKS
ELLENSBURG AP   MOCLDY      42  32  67  NW13    29.85R WCI 35
#ELLENSBURG CWU N/A         40  33  76  NW5     29.82R
#ELLENSBURG 3NE N/A         39  33  79  NW5     29.86R
#KITTITAS 4N    N/A         37  31  79  CALM    28.17R
#KITTITAS 3S    N/A         36  34  92  CALM    29.87R
#THORP 6N       N/A         36  32  85  N6      29.90R
$$

WAZ027-251610-
YAKIMA VALLEY

CITY            SKY/WX      TMP DP  RH  WIND    PRES   REMARKS
SUNNYSIDE AP    PTCLDY      41  36  82  CALM    29.88R
YAKIMA AIRPORT  MOCLDY      44  34  68  SW3     29.88R
#DONALD 2NE     N/A         46  31  56  CALM    28.73R
#GRANDVIEW      N/A         44  35  70  CALM    29.90R
#MABTON         N/A         43  36  76  CALM    29.88R
#NACHES 2SW     N/A         42  34  73  W5      29.85R
#TERRACE HTS    N/A         40  34  79  CALM    29.85R
#WAPATO 4NE     N/A         46  31  56  CALM    28.73R
#WEST VALLEY    N/A         42  33  70  CALM    29.86R
#W YAKIMA       N/A         42  33  70  CALM    29.88R
#WHITE SWAN 5E  N/A         41  37  86  NE1     29.88R
$$

WAZ028-251610-
LOWER COLUMBIA BASIN...WASHINGTON

CITY            SKY/WX      TMP DP  RH  WIND    PRES   REMARKS
PASCO           MOCLDY      48  38  68  SW8     29.90R
PROSSER AWOS    N/A         45  39  79  E2      29.92R
RICHLAND AWOS   MOCLDY      48  39  71  S6      29.89R
#BASIN CITY 5SW N/A         43  38  82  S2      29.88R
#BENTON CITY    N/A         43  37  79  NE2     29.80R
#CONNELL 5N     N/A         39  36  89  E1      29.87R
#CONNELL 5NW    N/A         40  37  89  S2      29.84R
#ELTOPIA        N/A         47  41  79  S3      29.85R
#ELTOPIA 6NW    N/A         41  38  89  S2      28.84R
#KAHLOTUS       N/A         42  37  82  W6      29.87R
#KENNEWICK 3S   N/A         44  38  79  S5      29.89R
#PATERSON       N/A         47  41  79  W7      29.88R
#PROSSER DOT    N/A         42  37  82  CALM    N/A
#PROSSER        N/A         44  34  68  CALM    29.87R
#SAGEMOOR 2W    N/A         46  41  83  S1      29.73R
#TOUCHET 2S     N/A         47  37  68  SW10    29.87R
#WEST PASCO     N/A         47  38  71  S1      29.90R
$$

WAZ029-251610-
FOOTHILLS OF THE BLUES...WASHINGTON

CITY            SKY/WX      TMP DP  RH  WIND    PRES   REMARKS
WALLA WALLA AP  PTCLDY      49  36  61  S7      29.89R
#DAYTON SCHOOL  N/A         46  32  58  SW6     29.90R
#LOWDEN 2SE     N/A         49  37  63  W7      29.86R
#PLEASANT VIEW 1N/A         43  37  79  S9      29.91R
#PRESCOTT       N/A         45  40  82  CALM    29.89R
#SUDBURY        N/A         50  N/A N/A CALM    N/A
#WHITMAN COLLEGEN/A         48  38  68  S7      29.94R
#WAITSBURG 5S   N/A         44  38  79  S7      29.98R
#WAITSBURG 8N   N/A         45  22  40  S8      29.76F
#WALLA WALLA 5E N/A         46  40  79  W2      N/A
#WALLA WALLA U  N/A         48  40  74  CALM    29.89R
#WHITMAN MISSIONN/A         48  40  74  CALM    29.91S
$$

WAZ030-251610-
BLUE MOUNTAINS...WASHINGTON

CITY            SKY/WX      TMP DP  RH  WIND    PRES   REMARKS
#DIXIE 5SE      N/A         39  32  76  SW6     29.79R
$$

ORZ009-041-WAZ024-251610-
COLUMBIA RIVER GORGE

CITY            SKY/WX      TMP DP  RH  WIND    PRES   REMARKS
HOOD RIVER AP   CLOUDY      43  41  93  CALM    29.94R
THE DALLES AP   CLOUDY      45  40  82  NW13    29.94R WCI 39
#ARLINGTON AIRPON/A         44  39  82  W8      30.16R
#ARLINGTON HS   N/A         46  38  73  N7      29.83S
#CELILO DOT     N/A         47  39  74  SW2     N/A
#MARYHILL       N/A         43  38  82  CALM    N/A
#MOSIER 1S      N/A         42  39  89  CALM    29.91S
#MURDOCK        N/A         47  43  86  NW5     29.96R
#RUFUS DOT      N/A         46  40  79  SE1     N/A

$$

ORZ510-251610-
NORTH CENTRAL OREGON

CITY            SKY/WX      TMP DP  RH  WIND    PRES   REMARKS
#CHENOWITH 1W   N/A         39  37  92  W12     N/A    WCI 32
#COW CYN RST AREN/A         38  31  76  S3      N/A
#DUFUR 9E       N/A         38  36  92  W3      29.96S
#GRASS VALLEY 1SN/A         38  35  89  CALM    29.95R
#KENT DOT       N/A         39  31  73  SW6     N/A
#MAUPIN SCHOOL  N/A         44  37  76  CALM    29.93R
#MORO SCHOOL    N/A         41  40  96  NW6     29.91R
#SHANIKO 5WSW   N/A         36  29  75  S8      N/A
#SHANIKO 4NW    N/A         37  30  75  SW1     29.85R
#TYGH VALLEY 2NEN/A         42  37  82  CALM    29.91R
#WAPANITIA AIRPON/A         42  36  79  CALM    29.92R
#WASCO DOT      N/A         43  40  89  W3      N/A
#WASCO 5NE      N/A         40  37  89  SW5     29.91R
$$

ORZ511-251610-
CENTRAL OREGON

CITY            SKY/WX      TMP DP  RH  WIND    PRES   REMARKS
BEND AIRPORT    CLOUDY      39  30  70  SW7     29.88R
MADRAS AIRPORT  CLOUDY      39  34  82  CALM    29.91R
PRINEVILLE AP   MOCLDY      39  30  70  CALM    29.88R
#BEND 1SW       N/A         38  32  79  CALM    N/A
#BEND-AWBREY    N/A         38  33  82  SW3     29.91R
#BEND-KIM LN    N/A         38  32  79  SW5     29.85R
#CROOKED RVR RANN/A         38  31  76  SW1     29.91R
#CULVER         N/A         39  31  73  SW3     29.85R
#LAKE BILLY CHINN/A         42  19  39  W2      29.98S
#POWELL BUTTE 3EN/A         35  31  85  E2      N/A
#POWELL BUTTE   N/A         41  31  67  W5      29.51R
#PRINEVILLE 3N  N/A         38  34  85  E1      29.89R
#WARM SPRINGS   N/A         41  36  82  CALM    29.88R

$$


ORZ509-251610-
EAST SLOPES OF OREGON CASCADES

CITY            SKY/WX      TMP DP  RH  WIND    PRES   REMARKS
#BLUE BOX PASS  N/A         32  -16 11  NW2     N/A
#CAMP SHERMAN   N/A         37  32  82  CALM    29.93R
#LA PINE 4NW    N/A         31  27  85  CALM    29.96S
#SISTERS AIRPOR N/A         38  36  92  CALM    30.17S
#SISTERS ODOT   N/A         38  N/A N/A CALM    N/A
#SISTERS 3N     N/A         40  30  67  CALM    29.93R
#SUNRIVER       N/A         34  32  92  CALM    29.82R
#TUMALO 3W      N/A         37  29  72  S1      29.80S
#WANOGA BUTTE D N/A         27  26  96  W6      N/A

$$

ORZ044-251610-
LOWER COLUMBIA BASIN...OREGON

CITY            SKY/WX      TMP DP  RH  WIND    PRES   REMARKS
HERMISTON       MOCLDY      47  35  63  SW5     29.89S
#BOARDMAN 8SW   N/A         47  39  74  SW12    29.90R WCI 42
#IONE SCHOOL    N/A         48  33  56  SW6     29.87R
#IRRIGON 4NW    N/A         48  39  71  SW10    N/A
#UMATILLA SCHOOLN/A         42  38  86  CALM    29.92F
#UMATILLA       N/A         57  36  45  SW7     29.82R
$$

ORZ507-251610-
NORTHERN FOOTHILLS OF THE BLUES

CITY            SKY/WX      TMP DP  RH  WIND    PRES   REMARKS
PENDLETON AIRPT MOCLDY      44  34  68  SW6     29.89R
#ADAMS 3WNW     N/A         44  39  82  SW3     29.91S
#ATHENA         N/A         45  39  79  S1      29.91S
#CAYUSE         N/A         43  38  82  CALM    29.90R
#HELIX SCHOOL   N/A         45  36  70  W6      29.88S
#HELIX 3N       N/A         44  34  68  SW15    29.85R WCI 37
#HOLDMAN 6E     N/A         43  34  70  VRB7    29.70S
#M-F FERNDALE   N/A         48  37  65  CALM    29.88S
#M-F GROVE ELEM N/A         47  35  63  CALM    29.87R
#M-FREEWATER 5SEN/A         44  36  73  SE1     29.88S
#PENDLETON DNTN N/A         44  34  68  CALM    29.90S
#PDT AQUATIC CTRN/A         45  32  60  CALM    29.89S
#PENDLETON 5NE  N/A         42  38  86  CALM    29.87R
#PDT SUNRIDGE   N/A         44  39  82  CALM    29.91S
#PENDLETON 7NW  N/A         39  34  82  CALM    29.88S
#PILOT ROCK     N/A         42  35  76  CALM    29.92R
#TUTUILLA       N/A         45  39  79  SW3     29.91R
#UMAPINE 2E     N/A         50  39  66  E1      29.87R
#WESTON SCHOOL  N/A         45  34  65  W5      29.87R

$$

ORZ508-251610-
SOUTHERN FOOTHILLS OF THE BLUES

CITY            SKY/WX      TMP DP  RH  WIND    PRES   REMARKS
LEXINGTON       MOCLDY      46  34  63  SW10    29.91R
#AJAX           N/A         40  28  62  CALM    29.83S
#CONDON SCHOOL  N/A         39  32  76  CALM    29.84S
#CONDON 5W      N/A         38  30  73  SW7     29.83R
#FOSSIL SCHOOL  N/A         39  35  85  CALM    29.85F
#HEPPNER EOC    N/A         43  34  70  CALM    29.83S
#HEPPNER 4NE    N/A         40  32  73  S3      29.89S
#LEXINGTON 2SE  N/A         48  34  58  W7      29.87R
#MIKKALO        N/A         44  32  62  SW6     29.89R
#RUGGS 5NE      N/A         41  33  73  S1      30.01R
#RUGGS 2SW      N/A         40  33  76  SW3     29.92S

$$

ORZ502-503-251610-
BLUE MOUNTAINS

CITY            SKY/WX      TMP DP  RH  WIND    PRES   REMARKS
MEACHAM         PTCLDY      38  34  85  CALM    29.85
#BATTLE MTN DOT N/A         33  33  100 S2      N/A
#HEPPNER 15SE   N/A         36  31  82  CALM    29.74R
#LADD CYN SMT   N/A         36  32  85  W2      N/A
#LADD CREEK ODOTN/A         37  34  89  NE2     N/A
#LONG CREEK HS  N/A         38  37  96  CALM    29.82R
#N POWDER DOT   N/A         37  34  89  W2      N/A
#PIKES PEAK     N/A         37  31  79  SW14    27.99S WCI 28
#TOLLGATE       N/A         30  29  96  S2      29.78R
#TROY SCHOOL    N/A         39  32  76  W1      29.76S
#UKIAH          N/A         34  31  89  CALM    29.94R
#WESTON 4E      N/A         38  34  85  S5      29.84R
$$

ORZ505-251610-
JOHN DAY BASIN

CITY            SKY/WX      TMP DP  RH  WIND    PRES   REMARKS
JOHN DAY        MOCLDY      36  29  75  SE7     29.87R
#JOHN DAY KJDY  N/A         38  31  76  CALM    29.91F
#DAYVILLE SCHOOLN/A         38  30  73  CALM    29.87R
#MITCHELL       N/A         37  32  82  CALM    30.01S
#MONUMENT HS    N/A         38  33  82  CALM    29.91R
#MT. VERNON 5SE N/A         38  31  76  CALM    29.81S
#WINLOCK        N/A         40  34  79  CALM    29.96R
$$

ORZ506-251610-
OCHOCO AND JOHN DAY HIGHLANDS

CITY            SKY/WX      TMP DP  RH  WIND    PRES   REMARKS
#BUCK CREEK DOT N/A         34  34  100 CALM    N/A
#HORSE RIDGE DO N/A         29  23  78  SE3     N/A
#KEYES SMT DOT  N/A         37  27  67  NW3     N/A
#PAULINA SCHOOL N/A         39  33  79  CALM    29.85R
#PINE MTN OBS   N/A         29  24  81  CALM    N/A
#PRAIRIE CITY   N/A         37  33  85  CALM    29.97F
#SENECA         N/A         30  N/A N/A CALM    N/A
#SENECA 9NW     N/A         28  25  88  CALM    29.88S
$$

ORZ049-251610-
GRANDE RONDE VALLEY

CITY            SKY/WX      TMP DP  RH  WIND    PRES   REMARKS
LA GRANDE       CLOUDY      39  28  64  N5      29.87R
#COVE           N/A         41  35  79  CALM    29.89R
#COVE SCHOOL    N/A         41  33  73  CALM    29.86R
#ELGIN 3N       N/A         36  30  79  CALM    29.86R
#ELGIN 1E       N/A         35  30  82  CALM    N/A
#IMBLER SCHOOL  N/A         45  28  51  CALM    29.86R
#ISLAND CITY 4N N/A         40  39  96  CALM    29.96R
#LADD CYN DOT   N/A         40  34  79  NE2     N/A
#LA GRANDE ELEM N/A         41  32  70  CALM    29.90S
#UNION 1S       N/A         41  33  73  CALM    29.82R
$$

ORZ050-251610-
WALLOWA COUNTY

CITY            SKY/WX      TMP DP  RH  WIND    PRES   REMARKS
#ENTERPRISE HS  N/A         34  29  82  CALM    29.89R
#IMNAHA SCHOOL  N/A         39  32  76  S2      29.88S
#IMNAHA 10S     N/A         35  29  78  SW3     29.86S
#JOSEPH 3N      N/A         33  31  92  CALM    29.88S
#JOSEPH 3W      N/A         37  28  70  E2      29.70R
#LOSTINE        N/A         37  30  75  CALM    29.70R
#MT HOWARD 8000 N/A         23  19  84  NE1     29.73R
#PROMISE 1S     N/A         38  31  76  CALM    29.96F
#SHEEP RDG 7000 N/A         27  23  85  CALM    29.93S
#WALLOWA SCHOOL N/A         33  28  82  CALM    30.86R



$$



USA.gov is the U.S. government's official web portal to all federal, state and local government web resources and services.